Date,TemperatureHighF,TemperatureAvgF,TemperatureLowF,DewpointHighF,DewpointAvgF,DewpointLowF,HumidityHigh,HumidityAvg,HumidityLow,PressureMaxIn,PressureMinIn,WindSpeedMaxMPH,WindSpeedAvgMPH,GustSpeedMaxMPH,PrecipitationSumIn
2013-3-1,62,45,27,32,25,15,63,48,30,30.13,30.01,16,3,16,0.00
2013-3-2,64,48,35,33,29,23,65,49,29,30.08,29.74,15,3,15,0.00
2013-3-3,57,39,29,35,28,16,87,65,41,29.78,29.43,19,2,19,0.00
2013-3-4,33,25,15,17,14,6,75,63,45,30.22,29.78,19,5,19,0.00
2013-3-5,36,21,9,24,13,2,82,71,56,30.20,29.93,6,1,6,0.00
2013-3-6,38,27,16,27,20,11,83,74,61,29.93,29.62,5,1,5,0.00
2013-3-7,56,39,27,32,25,17,83,61,23,29.91,29.67,10,2,10,0.00
2013-3-8,49,37,29,31,27,21,79,67,49,29.90,29.74,7,1,7,0.00
2013-3-9,50,35,24,29,20,15,85,58,28,30.11,29.80,14,2,14,0.00
2013-3-10,60,39,20,28,19,12,77,49,22,30.11,29.84,13,2,13,0.00
2013-3-11,49,42,33,28,24,16,62,49,34,30.10,29.84,16,4,16,0.00
2013-3-12,44,36,32,23,20,19,60,52,42,29.93,29.91,8,1,8,0.00
2013-3-13,70,51,30,34,26,19,65,42,21,29.99,29.91,16,4,16,0.00
2013-3-14,70,52,36,37,29,24,66,43,22,30.03,29.80,16,2,16,0.00
2013-3-15,68,52,36,32,27,19,69,41,17,29.97,29.75,17,3,17,0.00
2013-3-16,52,37,26,31,26,20,81,66,42,29.96,29.58,8,2,9,0.00
2013-3-17,45,34,24,31,19,10,82,57,24,29.82,29.39,19,4,22,0.00
2013-3-18,46,30,15,20,11,6,72,48,20,29.86,29.70,19,3,19,0.00
2013-3-19,43,34,25,27,20,14,78,57,42,30.16,29.86,10,2,10,0.00
2013-3-20,60,36,17,28,19,9,76,53,28,30.07,29.46,9,1,9,0.00
2013-3-21,50,40,31,33,19,8,82,47,22,29.79,29.45,13,3,13,0.00
2013-3-22,34,28,19,27,15,6,85,60,38,30.03,29.77,10,2,10,0.00
2013-3-23,37,25,14,15,10,7,77,56,31,30.14,30.02,10,1,10,0.00
2013-3-24,36,24,13,15,10,5,75,55,31,30.19,30.11,9,1,10,0.00
2013-3-25,52,30,11,22,11,3,74,49,24,30.16,29.90,9,1,9,0.00
2013-3-26,56,39,24,26,16,8,60,42,27,29.91,29.82,10,1,10,0.00
2013-3-27,65,43,22,29,19,11,65,42,21,29.93,29.81,9,1,9,0.00
2013-3-28,68,48,30,33,24,16,62,42,23,29.97,29.87,8,1,8,0.00
2013-3-29,65,49,38,43,29,22,72,48,30,30.00,29.89,15,2,16,0.00
2013-3-30,63,50,38,37,28,20,76,47,21,30.05,29.95,13,3,13,0.00
2013-3-31,61,47,31,31,24,18,63,42,26,30.02,29.88,13,3,13,0.00